AMX4522 KLAX-MMMX

Flight info

Callsign AMX4522
Flight time N/A
Altitude 33000
Route PNDAH2 TCATE DCT PPE UJ7 LIDUK/N0452F350 UJ7 HMO UT18 NABAS UT49 DGO UJ5 ZCL UT130 DARAN DARAN3A
Aircraft B738/M-SDE2E3FGHIRWXY/LB1

Departure

Time 2026-04-23 11:58
Airport Los Angeles International Airport (KLAX)

Arrival

Time N/A
Airport Mexico City Benito Juárez International Airport (MMMX)
Time Latitude Longitude Altitude Speed Heading
2026-04-23 11:40 33.94604 -118.40830 125 ft 0 kts 61°
2026-04-23 11:52 33.94593 -118.40852 120 ft 4 kts 47°
2026-04-23 11:52 33.94572 -118.40871 120 ft 4 kts 18°
2026-04-23 11:52 33.94551 -118.40874 122 ft 0 kts 351°
2026-04-23 11:54 33.94562 -118.40879 121 ft 9 kts 337°
2026-04-23 11:54 33.94649 -118.40905 122 ft 16 kts 353°
2026-04-23 11:55 33.94763 -118.40902 123 ft 17 kts 19°
2026-04-23 11:55 33.94844 -118.40820 125 ft 16 kts 85°
2026-04-23 11:55 33.94857 -118.40673 125 ft 19 kts 83°
2026-04-23 11:55 33.94868 -118.40563 125 ft 20 kts 83°
2026-04-23 11:56 33.94885 -118.40402 125 ft 19 kts 83°
2026-04-23 11:56 33.94902 -118.40245 123 ft 19 kts 83°
2026-04-23 11:56 33.94963 -118.40173 123 ft 14 kts 354°
2026-04-23 11:56 33.95013 -118.40232 123 ft 10 kts 261°
2026-04-23 11:57 33.94993 -118.40429 125 ft 56 kts 263°
2026-04-23 11:57 33.94913 -118.41215 123 ft 131 kts 263°
2026-04-23 11:57 33.94773 -118.42555 212 ft 186 kts 263°
2026-04-23 11:57 33.94598 -118.44227 665 ft 215 kts 263°
2026-04-23 11:58 33.94407 -118.46060 1355 ft 225 kts 264°
2026-04-23 11:58 33.94291 -118.47986 2031 ft 237 kts 269°
2026-04-23 11:58 33.94236 -118.50020 2601 ft 248 kts 270°
2026-04-23 11:58 33.94154 -118.52117 3363 ft 252 kts 267°
2026-04-23 11:59 33.93988 -118.54226 4189 ft 254 kts 266°
2026-04-23 11:59 33.93812 -118.56345 4997 ft 256 kts 266°
2026-04-23 11:59 33.93637 -118.58489 5748 ft 258 kts 266°
2026-04-23 11:59 33.93435 -118.60651 6512 ft 263 kts 259°
2026-04-23 12:00 33.92620 -118.62630 7218 ft 270 kts 230°
2026-04-23 12:00 33.91076 -118.63917 7981 ft 277 kts 201°
2026-04-23 12:00 33.89140 -118.64181 8689 ft 285 kts 180°
2026-04-23 12:00 33.87140 -118.64033 9360 ft 291 kts 180°
2026-04-23 12:01 33.85106 -118.63846 10030 ft 296 kts 176°
2026-04-23 12:01 33.83130 -118.63043 10647 ft 306 kts 153°
2026-04-23 12:01 33.81332 -118.61643 11304 ft 311 kts 149°
2026-04-23 12:01 33.79499 -118.60116 11530 ft 332 kts 148°
2026-04-23 12:02 33.77543 -118.58479 11695 ft 353 kts 148°
2026-04-23 12:02 33.75459 -118.56756 11856 ft 373 kts 149°
2026-04-23 12:02 33.73272 -118.54971 12172 ft 386 kts 149°
2026-04-23 12:02 33.71066 -118.53162 12733 ft 391 kts 147°
2026-04-23 12:03 33.69138 -118.50819 13350 ft 402 kts 126°
2026-04-23 12:03 33.67779 -118.47872 14004 ft 405 kts 119°
2026-04-23 12:03 33.66501 -118.44832 14532 ft 410 kts 118°
2026-04-23 12:03 33.65219 -118.41754 15045 ft 414 kts 118°
2026-04-23 12:04 33.63918 -118.38653 15600 ft 418 kts 119°
2026-04-23 12:04 33.62595 -118.35534 16141 ft 421 kts 120°
2026-04-23 12:04 33.61251 -118.32396 16669 ft 425 kts 120°
2026-04-23 12:04 33.59891 -118.29238 17196 ft 428 kts 120°
2026-04-23 12:05 33.58514 -118.26051 17710 ft 432 kts 120°
2026-04-23 12:05 33.57128 -118.22844 18208 ft 435 kts 120°
2026-04-23 12:05 33.55726 -118.19603 18661 ft 439 kts 120°
2026-04-23 12:05 33.54317 -118.16349 19124 ft 442 kts 120°
2026-04-23 12:06 33.52899 -118.13071 19580 ft 444 kts 120°
2026-04-23 12:06 33.51479 -118.09770 20051 ft 447 kts 120°
2026-04-23 12:06 33.48618 -118.03115 20935 ft 452 kts 120°
2026-04-23 12:07 33.47128 -117.99787 21375 ft 453 kts 126°
2026-04-23 12:07 33.45114 -117.96948 21761 ft 446 kts 143°
2026-04-23 12:07 33.42774 -117.94513 22231 ft 446 kts 144°
2026-04-23 12:07 33.40409 -117.92088 22641 ft 449 kts 144°
2026-04-23 12:08 33.38037 -117.89642 23026 ft 452 kts 144°
2026-04-23 12:08 33.35662 -117.87165 23423 ft 455 kts 144°
2026-04-23 12:08 33.33280 -117.84657 23784 ft 457 kts 144°
2026-04-23 12:08 33.30895 -117.82133 24114 ft 459 kts 144°
2026-04-23 12:09 33.28505 -117.79599 24447 ft 461 kts 144°
2026-04-23 12:09 33.26098 -117.77049 24761 ft 463 kts 144°
2026-04-23 12:09 33.23680 -117.74489 25075 ft 465 kts 144°
2026-04-23 12:09 33.21254 -117.71925 25390 ft 467 kts 145°
2026-04-23 12:10 33.18811 -117.69348 25683 ft 470 kts 145°
2026-04-23 12:10 33.16514 -117.66521 25937 ft 483 kts 131°
2026-04-23 12:10 33.14914 -117.62936 26203 ft 497 kts 114°
2026-04-23 12:10 33.13770 -117.59093 26524 ft 499 kts 113°
2026-04-23 12:11 33.12644 -117.55100 26762 ft 503 kts 112°
2026-04-23 12:11 33.11535 -117.51130 26986 ft 506 kts 112°
2026-04-23 12:11 33.10423 -117.47191 27238 ft 509 kts 113°
2026-04-23 12:11 33.09259 -117.43142 27491 ft 511 kts 113°
2026-04-23 12:12 33.08089 -117.39134 27742 ft 513 kts 114°
2026-04-23 12:12 33.06919 -117.35168 27971 ft 515 kts 114°
2026-04-23 12:12 33.05706 -117.31083 28208 ft 517 kts 114°
2026-04-23 12:12 33.04515 -117.27085 28431 ft 520 kts 114°
2026-04-23 12:13 33.03301 -117.23011 28673 ft 522 kts 114°
2026-04-23 12:13 33.02082 -117.18926 28893 ft 524 kts 114°
2026-04-23 12:13 33.00861 -117.14832 29140 ft 526 kts 114°
2026-04-23 12:13 32.99635 -117.10725 29444 ft 526 kts 114°
2026-04-23 12:14 32.98409 -117.06618 29797 ft 525 kts 114°
2026-04-23 12:14 32.97183 -117.02517 30130 ft 525 kts 115°
2026-04-23 12:14 32.95955 -116.98421 30376 ft 526 kts 115°
2026-04-23 12:14 32.94723 -116.94317 30616 ft 527 kts 115°
2026-04-23 12:15 32.93489 -116.90210 30852 ft 528 kts 115°
2026-04-23 12:15 32.92250 -116.86095 31090 ft 528 kts 115°
2026-04-23 12:15 32.91008 -116.81975 31314 ft 529 kts 115°
2026-04-23 12:15 32.89763 -116.77847 31532 ft 530 kts 115°
2026-04-23 12:16 32.88517 -116.73725 31761 ft 530 kts 115°
2026-04-23 12:16 32.87266 -116.69591 31968 ft 531 kts 115°
2026-04-23 12:16 32.86012 -116.65450 32177 ft 533 kts 115°
2026-04-23 12:16 32.84753 -116.61301 32366 ft 534 kts 115°
2026-04-23 12:17 32.83492 -116.57147 32572 ft 535 kts 115°
2026-04-23 12:17 32.82227 -116.52987 32779 ft 535 kts 115°
2026-04-23 12:17 32.80957 -116.48821 32965 ft 536 kts 116°
2026-04-23 12:17 32.79517 -116.44752 33072 ft 534 kts 122°
2026-04-23 12:18 32.76113 -116.36906 33077 ft 536 kts 126°
2026-04-23 12:18 32.72545 -116.29130 33062 ft 535 kts 126°
2026-04-23 12:19 32.69046 -116.21318 33064 ft 536 kts 124°
2026-04-23 12:19 32.65626 -116.13516 33054 ft 536 kts 124°
2026-04-23 12:20 32.62196 -116.05657 33042 ft 536 kts 124°
2026-04-23 12:20 32.58767 -115.97824 33028 ft 535 kts 124°
2026-04-23 12:21 32.55330 -115.90008 33023 ft 534 kts 124°
2026-04-23 12:21 32.51885 -115.82200 33020 ft 536 kts 124°
2026-04-23 12:22 32.48422 -115.74367 33008 ft 536 kts 124°
2026-04-23 12:22 32.44974 -115.66574 33010 ft 533 kts 124°
2026-04-23 12:23 32.41529 -115.58810 32983 ft 532 kts 124°
2026-04-23 12:23 32.38086 -115.51069 32975 ft 532 kts 124°
2026-04-23 12:24 32.34635 -115.43328 32954 ft 532 kts 124°
2026-04-23 12:24 32.31175 -115.35583 32931 ft 533 kts 124°
2026-04-23 12:25 32.27713 -115.27847 32953 ft 532 kts 124°
2026-04-23 12:25 32.24243 -115.20109 32950 ft 533 kts 124°
2026-04-23 12:26 32.20766 -115.12374 32951 ft 534 kts 124°
2026-04-23 12:26 32.17274 -115.04624 32948 ft 535 kts 124°
2026-04-23 12:27 32.13771 -114.96865 32948 ft 536 kts 124°
2026-04-23 12:27 32.10281 -114.89148 32951 ft 537 kts 124°
2026-04-23 12:28 32.06755 -114.81370 32948 ft 539 kts 124°
2026-04-23 12:28 32.03214 -114.73574 32948 ft 539 kts 124°
2026-04-23 12:29 31.99669 -114.65785 32947 ft 540 kts 125°
2026-04-23 12:29 31.96113 -114.57989 32944 ft 540 kts 125°
2026-04-23 12:30 31.92550 -114.50196 32947 ft 540 kts 125°
2026-04-23 12:30 31.88984 -114.42412 32944 ft 540 kts 125°
2026-04-23 12:31 31.85416 -114.34639 32944 ft 540 kts 125°
2026-04-23 12:31 31.81847 -114.26879 32944 ft 539 kts 125°
2026-04-23 12:32 31.78274 -114.19132 32939 ft 539 kts 125°
2026-04-23 12:32 31.74698 -114.11389 32937 ft 539 kts 125°
2026-04-23 12:33 31.71123 -114.03666 32941 ft 538 kts 125°
2026-04-23 12:33 31.67541 -113.95944 32943 ft 538 kts 125°
2026-04-23 12:34 31.63955 -113.88231 32936 ft 538 kts 125°
2026-04-23 12:34 31.60367 -113.80528 32937 ft 538 kts 125°
2026-04-23 12:35 31.56775 -113.72833 32937 ft 538 kts 125°
2026-04-23 12:35 31.53176 -113.65137 32936 ft 538 kts 125°
2026-04-23 12:36 31.49594 -113.57494 32935 ft 539 kts 125°
2026-04-23 12:36 31.45980 -113.49796 32940 ft 539 kts 125°
2026-04-23 12:37 31.42361 -113.42103 32939 ft 539 kts 125°
2026-04-23 12:37 31.38730 -113.34409 32933 ft 539 kts 126°
2026-04-23 12:38 31.34329 -113.27514 32931 ft 520 kts 144°
2026-04-23 12:38 31.28953 -113.22008 32931 ft 513 kts 149°
2026-04-23 12:39 31.23519 -113.16614 32930 ft 513 kts 149°
2026-04-23 12:39 31.18106 -113.11167 32929 ft 514 kts 148°
2026-04-23 12:40 31.12709 -113.05687 32933 ft 514 kts 148°
2026-04-23 12:40 31.07320 -113.00211 32940 ft 514 kts 148°
2026-04-23 12:41 31.01923 -112.94739 32940 ft 514 kts 148°
2026-04-23 12:41 30.96560 -112.89314 32938 ft 514 kts 148°
2026-04-23 12:42 30.91155 -112.83856 32931 ft 514 kts 148°
2026-04-23 12:42 30.85753 -112.78409 32929 ft 513 kts 148°
2026-04-23 12:43 30.80356 -112.72976 32934 ft 513 kts 148°
2026-04-23 12:43 30.74955 -112.67547 32934 ft 513 kts 148°
2026-04-23 12:44 30.70430 -112.63005 32927 ft 513 kts 148°
2026-04-23 12:44 30.65031 -112.57594 32926 ft 512 kts 148°
2026-04-23 12:45 30.59673 -112.52231 32919 ft 512 kts 148°
2026-04-23 12:45 30.54282 -112.46843 32926 ft 511 kts 148°
2026-04-23 12:46 30.48900 -112.41472 32932 ft 510 kts 148°
2026-04-23 12:46 30.43521 -112.36115 32925 ft 510 kts 148°
2026-04-23 12:47 30.38146 -112.30768 32926 ft 509 kts 148°
2026-04-23 12:47 30.32768 -112.25427 32932 ft 509 kts 148°
2026-04-23 12:48 30.27384 -112.20088 32936 ft 510 kts 148°
2026-04-23 12:48 30.21991 -112.14747 32937 ft 510 kts 148°
2026-04-23 12:49 30.16590 -112.09407 32940 ft 511 kts 148°
2026-04-23 12:49 30.11216 -112.04101 32945 ft 512 kts 148°
2026-04-23 12:50 30.05793 -111.98754 32939 ft 513 kts 148°
2026-04-23 12:50 30.00371 -111.93414 32947 ft 512 kts 147°
2026-04-23 12:51 29.94952 -111.88086 32948 ft 512 kts 147°
2026-04-23 12:51 29.89532 -111.82765 32946 ft 511 kts 147°
2026-04-23 12:52 29.84118 -111.77458 32945 ft 510 kts 147°
2026-04-23 12:52 29.78711 -111.72163 32946 ft 510 kts 147°
2026-04-23 12:53 29.73306 -111.66875 32949 ft 509 kts 147°
2026-04-23 12:53 29.67907 -111.61600 32947 ft 509 kts 147°
2026-04-23 12:54 29.62512 -111.56335 32952 ft 509 kts 147°
2026-04-23 12:54 29.57113 -111.51075 32946 ft 508 kts 147°
2026-04-23 12:55 29.51719 -111.45826 32940 ft 508 kts 147°
2026-04-23 12:55 29.46321 -111.40580 32950 ft 509 kts 147°
2026-04-23 12:56 29.40918 -111.35339 32945 ft 509 kts 147°
2026-04-23 12:56 29.35498 -111.30106 32950 ft 509 kts 147°
2026-04-23 12:57 29.30073 -111.24880 32960 ft 509 kts 147°
2026-04-23 12:57 29.24649 -111.19657 32962 ft 509 kts 147°
2026-04-23 12:58 29.19227 -111.14443 32968 ft 509 kts 147°
2026-04-23 12:58 29.13844 -111.09272 32970 ft 509 kts 147°
2026-04-23 12:59 29.08465 -111.04004 32964 ft 512 kts 142°
2026-04-23 12:59 29.03479 -110.98156 32971 ft 515 kts 139°
2026-04-23 13:00 28.98587 -110.92176 32963 ft 515 kts 139°
2026-04-23 13:00 28.93658 -110.86260 32962 ft 514 kts 140°
2026-04-23 13:01 28.88704 -110.80396 32966 ft 513 kts 140°
2026-04-23 13:01 28.83741 -110.74538 32957 ft 513 kts 140°
2026-04-23 13:02 28.78783 -110.68683 32958 ft 513 kts 140°
2026-04-23 13:02 28.73827 -110.62841 32964 ft 513 kts 140°
2026-04-23 13:03 28.68842 -110.57035 32963 ft 513 kts 140°
2026-04-23 13:03 28.63844 -110.51240 32965 ft 513 kts 140°
2026-04-23 13:04 28.58843 -110.45443 32958 ft 513 kts 140°
2026-04-23 13:04 28.53848 -110.39654 32969 ft 512 kts 140°
2026-04-23 13:05 28.48851 -110.33869 32957 ft 513 kts 140°
2026-04-23 13:05 28.43852 -110.28090 32962 ft 512 kts 140°
2026-04-23 13:06 28.36383 -110.19473 32961 ft 513 kts 140°
2026-04-23 13:07 28.31374 -110.13703 32952 ft 513 kts 140°
2026-04-23 13:07 28.26359 -110.07935 32953 ft 513 kts 140°
2026-04-23 13:08 28.21347 -110.02177 32956 ft 513 kts 140°
2026-04-23 13:08 28.16331 -109.96423 32956 ft 513 kts 140°
2026-04-23 13:09 28.11349 -109.90625 32961 ft 514 kts 139°
2026-04-23 13:09 28.06397 -109.84797 32961 ft 514 kts 139°
2026-04-23 13:10 28.01433 -109.78970 32963 ft 514 kts 139°
2026-04-23 13:10 27.96466 -109.73162 32959 ft 514 kts 139°
2026-04-23 13:11 27.91491 -109.67356 32972 ft 514 kts 139°